Location: Newark
(44.9000°N, 9.6000°E)
Time: 06:40:10
(UTC+00:00)

ISS - Pass Details

Date: 19 January 2020
Orbit: 415 x 422 km, 51.6° (Epoch: 22 February)

Event Time Altitude Azimuth Distance (km) Brightness Sun altitude
Rises 18:02:49 0° 203° (SSW) 2,364 0.5 -19.5°
Reaches altitude 10° 18:05:15 10° 187° (S) 1,503 -0.8 -19.9°
Enters shadow 18:06:29 17° 168° (SSE) 1,167 -1.6 -20.1°
